EW7614 Weather Reports


Display with metric or nautical units.
time (UTC)temp
F
wind
direction
speed
MPH
gust
MPH
rain 1hr
in
rain 24hr
in
rain mn
in
humidity
%
barometer
mb
20260510140011 72 325 4.0 13.0 0.00 0.02 0.01 35 1005.1
20260510134601 72 194 0.0 3.0 0.00 0.02 0.01 36 1005.5
20260510133026 71 90 1.0 14.0 0.00 0.02 0.01 34 1005.8
20260510131617 71 194 2.0 13.0 0.00 0.02 0.01 34 1006.0
20260510130044 71 202 0.0 4.0 0.00 0.02 0.01 34 1006.2
20260510124526 72 63 0.0 1.0 0.00 0.02 0.01 40 1006.3
20260510123108 71 298 0.0 1.0 0.00 0.02 0.01 45 1006.5
20260510121529 71 271 0.0 1.0 0.00 0.02 0.01 42 1006.8
20260510120114 70 267 2.0 4.0 0.00 0.02 0.01 39 1007.0
20260510114523 71 269 1.0 3.0 0.00 0.02 0.01 46 1007.1
20260510113100 70 171 0.0 2.0 0.00 0.02 0.01 43 1007.3
20260510111504 71 222 0.0 2.0 0.00 0.02 0.01 48 1007.5
20260510110043 71 336 0.0 3.0 0.00 0.02 0.01 54 1007.7
20260510104618 69 90 0.0 2.0 0.00 0.02 0.01 52 1008.0
20260510103012 67 213 0.0 3.0 0.00 0.02 0.01 50 1008.3
20260510101542 66 208 1.0 3.0 0.00 0.02 0.01 52 1008.5
20260510100116 65 78 1.0 3.0 0.00 0.02 0.01 51 1008.8
20260510094517 65 296 0.0 3.0 0.00 0.02 0.01 56 1009.0
20260510093101 63 5 0.0 2.0 0.00 0.02 0.01 59 1009.3
20260510091626 61 338 0.0 1.0 0.00 0.02 0.01 65 1009.4
20260510090027 61 355 0.0 3.0 0.00 0.02 0.01 64 1009.6
20260510084550 59 283 0.0 2.0 0.00 0.02 0.01 68 1009.7
20260510083139 57 227 0.0 2.0 0.00 0.02 0.01 70 1010.0
20260510081543 56 265 0.0 3.0 0.00 0.02 0.01 71 1010.3
20260510080116 55 213 0.0 2.0 0.00 0.02 0.01 74 1010.5
20260510074515 53 317 0.0 2.0 0.00 0.02 0.01 79 1010.8
20260510073106 52 295 0.0 2.0 0.00 0.02 0.01 79 1011.0
20260510071631 52 166 0.0 0.0 0.00 0.02 0.01 79 1011.0
20260510070036 51 143 0.0 1.0 0.00 0.02 0.01 84 1011.3
20260510064614 50 342 0.0 1.0 0.00 0.02 0.01 86 1011.5
20260510063002 47 333 0.0 0.0 0.00 0.02 0.01 95 1011.7
20260510061533 44 293 0.0 1.0 0.00 0.02 0.01 96 1012.0
20260510060123 43 293 0.0 1.0 0.00 0.02 0.01 97 1012.3
20260510054540 41 292 0.0 0.0 0.01 0.02 0.01 96 1012.5
20260510053119 41 292 0.0 1.0 0.01 0.02 0.01 95 1012.7
20260510051520 41 292 0.0 0.0 0.01 0.02 0.01 96 1012.8
20260510050058 41 292 0.0 0.0 0.01 0.02 0.01 96 1012.9
20260510044518 36 293 0.0 0.0 0.00 0.02 0.00 95 1013.0
20260510043107 38 292 0.0 0.0 0.00 0.02 0.00 97 1013.1
20260510041518 36 292 0.0 0.0 0.00 0.02 0.00 97 1013.4
20260510040110 35 292 0.0 0.0 0.00 0.02 0.00 96 1013.4
20260510034535 36 292 0.0 0.0 0.00 0.02 0.00 97 1013.5
20260510033137 36 292 0.0 0.0 0.00 0.02 0.00 97 1013.6
20260510031546 35 292 0.0 0.0 0.00 0.02 0.00 96 1013.7
20260510030134 36 296 0.0 0.0 0.00 0.02 0.00 96 1013.7
20260510024544 36 296 0.0 0.0 0.00 0.02 0.00 96 1013.7
20260510023132 36 296 0.0 1.0 0.00 0.02 0.00 96 1013.9
20260510021547 37 317 0.0 0.0 0.00 0.02 0.00 96 1013.9
20260510020134 37 317 0.0 0.0 0.00 0.02 0.00 96 1013.9
20260510014549 37 317 0.0 0.0 0.00 0.02 0.00 96 1014.0
20260510013009 38 325 0.0 0.0 0.00 0.02 0.00 96 1014.0
20260510011609 39 326 0.0 0.0 0.00 0.02 0.00 96 1013.7
20260510010030 38 288 0.0 0.0 0.00 0.02 0.00 96 1013.9
20260510004623 38 288 0.0 0.0 0.00 0.02 0.00 96 1013.9
20260510003103 39 288 0.0 1.0 0.00 0.02 0.00 96 1014.0
20260510001509 40 288 0.0 0.0 0.00 0.02 0.00 96 1014.3
20260510000104 40 288 0.0 0.0 0.00 0.02 0.00 95 1014.4
20260509234525 40 288 0.0 0.0 0.00 0.02 0.00 96 1014.5
20260509233059 40 288 0.0 0.0 0.00 0.02 0.00 95 1014.6
20260509231520 41 288 0.0 0.0 0.00 0.02 0.00 95 1014.7
20260509230113 42 288 0.0 0.0 0.00 0.02 0.00 96 1014.8
20260509224546 41 288 0.0 0.0 0.00 0.02 0.00 95 1014.9
20260509223125 42 288 0.0 0.0 0.00 0.02 0.00 95 1014.9
20260509221539 42 288 0.0 0.0 0.00 0.02 0.00 94 1015.0
20260509220003 43 288 0.0 0.0 0.00 0.02 0.00 94 1015.0
20260509214611 43 288 0.0 0.0 0.00 0.02 0.02 94 1015.0
20260509213030 43 288 0.0 0.0 0.00 0.02 0.02 93 1015.0
20260509211628 44 288 0.0 0.0 0.00 0.02 0.02 93 1014.9
20260509210051 44 288 0.0 0.0 0.00 0.02 0.02 93 1014.9
20260509204633 44 288 0.0 0.0 0.00 0.02 0.02 92 1014.9
20260509203057 45 288 0.0 0.0 0.00 0.02 0.02 92 1014.9
20260509201635 46 288 0.0 0.0 0.00 0.02 0.02 90 1014.9
20260509200051 47 259 0.0 0.0 0.00 0.02 0.02 90 1014.8
20260509194506 47 260 0.0 0.0 0.00 0.02 0.02 89 1014.8
20260509193057 48 260 0.0 0.0 0.00 0.02 0.02 88 1014.8
20260509191514 49 274 0.0 0.0 0.00 0.02 0.02 85 1014.5
20260509184524 52 276 0.0 2.0 0.00 0.02 0.02 80 1014.1
20260509183113 52 136 0.0 0.0 0.00 0.02 0.02 80 1013.9
20260509181520 54 136 0.0 1.0 0.00 0.02 0.02 76 1013.6
20260509180117 55 200 0.0 2.0 0.00 0.02 0.02 74 1013.6
20260509174510 58 107 0.0 3.0 0.00 0.02 0.02 67 1013.6
20260509173109 61 248 0.0 3.0 0.00 0.02 0.02 61 1013.3
20260509171631 62 203 0.0 2.0 0.00 0.02 0.02 61 1013.4
20260509170051 60 193 3.0 8.0 0.00 0.02 0.02 61 1013.3
20260509164620 62 216 3.0 8.0 0.00 0.02 0.02 58 1013.6
20260509163030 63 157 0.0 1.0 0.00 0.02 0.02 62 1013.6
20260509161615 63 210 0.0 1.0 0.00 0.02 0.02 62 1013.8
20260509160026 64 316 0.0 1.0 0.00 0.02 0.02 58 1014.1
20260509154615 63 76 0.0 3.0 0.00 0.02 0.02 60 1014.2
20260509153019 63 63 0.0 2.0 0.00 0.02 0.02 69 1014.5
20260509151559 61 300 0.0 3.0 0.01 0.02 0.02 69 1014.8
20260509150136 61 67 0.0 2.0 0.02 0.02 0.02 73 1014.9
20260509144548 56 196 1.0 3.0 0.02 0.02 0.02 85 1014.9
20260509143121 54 59 0.0 1.0 0.02 0.02 0.02 87 1015.0
20260509141541 54 349 0.0 1.0 0.01 0.01 0.01 85 1014.8